Event Information

Theux, Belgium 2021-04-09

Trail Des 600 Boitheux

Après l'annulation 2020, les Boitheux reviennent avec une trace encore plus fouillée, des passages totalement inédits qui vont vraiment vous faire découvrir une région propice au trail. Championnats de Belgique Trail Classique et Ultra Trail, course qualificative Belge pour le championnat du monde de trail 2021

After the 2020 cancellation, the Boitheux are back with an even more detailed trail, completely new passages that will really make you discover a region suitable for trail running. Belgian Classic Trail and Ultra Trail Championships, Belgian qualifying race for the 2021 World Trail Running Championship

Select Another Race

Race information:

68km

Itra Points
3
Mtn Points
4
Finisher level
380
Runner Time Score Age Gender Nationality
1 LEFEBVRE Ludwig 5:23:53
Become an ITRA member for 8€ per year to unlock all your race statistics
+
145;
31 H BEL
2 VAN LOKEREN Stijn 5:38:33 41 H BEL
3 ROLAND Francois 6:06:03 34 H BEL
4 VERHEYEN WOUTER 6:14:25 36 H BEL
5 RALET Hugo 6:16:57 30 H BEL
6 JACOB Francois 6:25:01 41 H BEL
7 ANSELME Renaud 6:27:34 22 H BEL
8 LEYENS Pierre 6:27:52 45 H BEL
9 ETIENNE Fabrice 6:47:13 52 H BEL
10 HENDRICK Martin 6:49:16 29 H BEL
11 KEUSTERMANS Johannes 6:51:55 37 H BEL
12 VERSTRAETEN Arne 7:02:35 44 H BEL
13 Dewaele Karel 7:02:56 46 H BEL
14 VINCENT Adrien 7:05:06 22 H BEL
15 VAN WEVERBERG Tommy 7:06:35 43 H BEL
16 DE WAELE Floris 7:07:54 35 H BEL
17 CHAMBEAU Carole 7:08:37 39 F BEL
18 ROELING Kim 7:09:33 46 F NED
19 Bruneel Philippe 7:19:40 46 H BEL
20 JEUNEM Denis 7:20:11 47 H BEL
21 CHVALOVSKA Lea 7:20:15 23 F CZE
22 PIERARD Michel 7:23:04 51 H BEL
23 DASSESSE Thibaut 7:23:59 46 H BEL
24 HEIKOOP Maurits 7:31:04 49 H NED
25 VAN RANST Wiebe 7:31:05 31 H BEL
26 JOLY Ilka 7:31:55 45 F BEL
27 DEHOTTAY Nicolas 7:41:19 37 H BEL
28 MOHREN Frank 7:48:17 52 H GER
29 GUISSART Alain 7:50:39 49 H BEL
30 SOARES Fernando 7:51:20 46 H BEL
31 WANTE Guillaume 7:52:43 50 H FRA
32 DE GIORGI Sebastien 7:52:44 36 H BEL
33 LAFFINEUR Pierre 7:53:05 39 H BEL
34 HENNAU Gael 7:58:17 36 H BEL
35 TONNEAU Corentin 7:59:45 33 H BEL
36 ZIMMERMANN Nicolas 8:01:19 29 H BEL
37 WINTGENS David 8:01:23 38 H BEL
38 HOLBEIN Jan 8:02:41 31 H GER
39 BRAUN Christian 8:02:43 34 H GER
40 DEFLANDRE Rudy 8:04:23 53 H BEL
41 Van Acker Tom 8:11:01 29 H BEL
42 GINELA Liana 8:16:36 31 F LAT
43 COLLETTE Thomas 8:17:44 36 H BEL
44 VANBENEDEN Kristof 8:18:27 48 H BEL
45 DUJARDIN Philippe 8:21:26 40 H BEL
46 CULOT Lionel 8:24:33 41 H BEL
47 HEINE Laurent 8:24:34 51 H BEL
48 CHARLIER Pierre 8:28:16 50 H BEL
49 GURALNIK Stephan 8:30:30 35 H BEL
50 VANDORMAL Karel Jan 8:31:26 35 H BEL
51 LEJEUNE Bernard 8:31:46 50 H BEL
52 FOULON Jonathan 8:33:27 35 H BEL
53 BURETTE Nathan 8:35:18 26 H BEL
54 LEFFONDRE Antoine 8:42:20 39 H FRA
55 BOVY Christophe 8:42:38 49 H BEL
56 ACQUISTAPACE Sarah 8:44:31 116 F BEL
57 GAZON Cindy 8:45:14 43 F BEL
58 DROUILLON Colin 8:50:49 35 H BEL
59 DELBROUCK YANNICK 8:51:00 48 H BEL
60 RAUSIN Gauthier 8:51:29 25 H BEL
61 Azou Dominique 8:54:15 50 H BEL
62 MOULET Boris 8:55:48 28 H BEL
63 ROBERT Yves 8:56:01 51 H BEL
64 SERVAIS Jean Marc 8:56:02 47 H BEL
65 Schoumackers Benoit 8:58:51 47 H BEL
66 FAUT Iwan 8:59:14 40 H BEL
67 COLLE Laurent 9:00:10 54 H FRA
68 DUIJNHOUWER Vincent 9:02:18 40 H NED
69 BROUYAUX Matthieu 9:02:26 34 H BEL
70 DISPAS Celine 9:04:15 46 F BEL
71 RAUSIN Brice 9:05:36 29 H BEL
72 KISTEMAKER Steven 9:06:13 37 H NED
73 CRASBORN Julien 9:06:38 42 H BEL
74 VAN DEN HEUVEL Tonnie 9:08:35 41 F NED
75 CALCAGNILE Levi 9:08:40 34 H BEL
76 DEPERCHIN Luc 9:08:56 32 H FRA
77 DESSY Valery 9:09:34 43 F BEL
78 PAPPALETTERA Luciano 9:09:42 32 H NED
79 CHRISTIAENS Cindy 9:11:37 34 F BEL
80 DEVOLDRE Dirk 9:14:31 61 H BEL
81 MICHOTTE Simon 9:14:35 32 H BEL
82 MORIS Laurent 9:15:59 47 H BEL
83 VANDENTEMPEL Olivier 9:16:02 47 H BEL
84 JEANNE Jeremy 9:16:31 27 H FRA
85 BEAUFILS Guillaume 9:16:32 44 H FRA
86 COLARD Andrew 9:21:35 43 H BEL
87 DIERENS Dennis 9:21:40 50 H BEL
88 THEEUWEN Roland 9:30:34 52 H NED
89 PREUD'M Cedric 9:32:33 48 H FRA
90 HENNIQUIAU Jean Sebastien 9:35:44 35 H BEL
91 WIART Sylvain 9:40:35 46 H FRA
92 DUJARDIN Patrick 9:42:13 55 H BEL
93 ISERENTANT Carine 9:45:22 52 F BEL
94 Barla Gilles 9:45:41 37 H BEL
95 LEROY Stephanie 9:47:58 43 F BEL
96 VAN DEN EEDE Noelle 9:49:10 51 F BEL
97 Bellens Bart 9:52:53 39 H BEL
98 VERELLEN Franky 9:53:04 46 H BEL
99 LEROY Serge 9:54:36 50 H BEL
100 TEICHER Mathieu 9:58:02 43 H BEL
101 DEPOORTER Wesley 10:01:18 28 H BEL
102 PALLOSI Balazs 10:07:36 38 H HUN
103 AKKERMANS Digna 10:07:36 33 F NED
104 JUCHTER Birger 10:09:42 49 H GER
105 DIERICKX Steven 10:09:45 41 H BEL
106 SONET Renaud 10:09:52 44 H BEL
107 Delfosse Olivier 10:10:32 44 H BEL
108 KRAMER Julian 10:14:10 32 H NED
109 RAUSIN Bernard 10:18:18 58 H BEL
110 DELENS Frederic 10:19:32 47 H BEL
111 Temmerman Selena 10:22:46 47 F BEL
112 WILLEMS Didier 10:23:48 39 H BEL
113 CEUPPENS Johan 10:25:20 59 H BEL
114 LEROY Manon 10:32:09 29 F BEL
115 CHAVET Mathieu 10:33:50 37 H BEL
116 REMACLE Sebastien 10:33:50 40 H BEL
117 SUPPLY Denis 10:39:27 52 H BEL
118 CHRZANOWSKI Jean Francois 10:46:02 47 H FRA
119 DEMOULIN Steeve 10:50:27 42 H FRA
120 GUERLUS Christophe 10:59:15 53 H FRA
121 HAUMANN Alexandre 11:01:30 36 H BEL
122 SIMONIS Julien 11:01:31 34 H BEL
123 SALES Francois 11:02:40 57 H BEL
124 GOOSSENS Annick 11:03:10 57 F BEL
125 daco Raphael 11:03:41 40 H BEL
125 DACO Raphael 11:03:41 40 H BEL
126 BLAVIER Mathieu 11:04:41 24 H BEL
127 STECKEL Manfred 11:05:36 66 H GER
128 LAMBERT Laetitia 11:16:30 43 F FRA
129 THEISS David 11:16:30 47 H FRA
130 SCAILLET Geoffrey 11:21:54 25 H BEL
131 Botson Kerstin 11:23:19 43 F GEO
132 STEFFENS Tanja 11:23:19 46 F GER
133 MONTOISY Julie 11:25:52 35 F BEL
134 HENS Stijn 11:26:59 26 H BEL
135 MOUTON Stephane 11:27:36 50 H FRA
136 PIRLOT Bernard 11:30:11 40 H BEL
137 PATAUD Aymeric 11:33:36 46 H FRA
138 MROWIEC Stephane 11:38:32 41 H FRA
139 WACHEUL Dimitri 11:44:57 47 H BEL
140 DHEUR Christophe 11:48:00 36 H BEL
141 FETTWEIS Thierry 11:50:46 62 H BEL
142 VERLINDEN Jef 13:13:02 69 H BEL
143 VRANCKEN Jos 13:50:08 65 H BEL
144 GALANT Anne 14:30:04 50 F FRA
Copyright @ 2002-2021 ITRA, All Rights Reserved